Regional Weather Roundup
Issued by NWS

Home | Current Version | Previous Version | Text Only | Print | Product List | Glossary Off
Versions: 1 2 3 4 5 6 7 8 9 10 11 12 13 14 15 16 17 18 19 20 21 22 23 24 25 26 27 28 29 30 31 32 33 34 35 36 37 38 39 40 41 42 43 44 45 46 47 48 49 50

000
ASUS43 KBIS 272202
RWRND

NORTH DAKOTA REGIONAL WEATHER ROUNDUP
NATIONAL WEATHER SERVICE BISMARCK ND
500 PM CDT TUE JUN 27 2017

NOTE: "FAIR" INDICATES FEW OR NO CLOUDS BELOW 12,000 FEET WITH NO
SIGNIFICANT WEATHER AND/OR OBSTRUCTIONS TO VISIBILITY.


NDZ001>003-009>011-017-272300-
NORTHWEST NORTH DAKOTA

CITY           SKY/WX    TMP DP  RH WIND       PRES   REMARKS
WILLISTON      MOSUNNY   89  49  25 NW18      29.55R
MINOT          MOSUNNY   88  56  33 S15       29.53F
MINOT AFB      MOSUNNY   85  56  38 S12       29.52F
$$

NDZ018>021-031>035-040>046-272300-
SOUTHWEST NORTH DAKOTA

CITY           SKY/WX    TMP DP  RH WIND       PRES   REMARKS
BISMARCK       CLOUDY    90  62  39 SE17G29   29.53F HX  90
DICKINSON      CLOUDY    85  46  25 SE3       29.52F
GARRISON         N/A     80  58  46 S12       29.54F
HETTINGER ARPT CLOUDY    90  46  21 W14       29.57R
$$

NDZ004>008-012>016-024-026-027-054-272300-
NORTHEAST NORTH DAKOTA

CITY           SKY/WX    TMP DP  RH WIND       PRES   REMARKS
GRAND FORKS    MOSUNNY   80  49  33 S22G30    29.68F
GRND FRKS AFB  SUNNY     78  49  35 S21G31    29.68F
DEVILS LAKE    SUNNY     79  50  36 S20       29.63F
$$

NDZ022-023-025-028>030-036>039-047>053-272300-
SOUTHEAST NORTH DAKOTA

CITY           SKY/WX    TMP DP  RH WIND       PRES   REMARKS
FARGO          PTSUNNY   77  45  32 S23G31    29.71F
JAMESTOWN      SUNNY     82  48  30 S25G33    29.64F
$$




USA.gov is the U.S. government's official web portal to all federal, state and local government web resources and services.